, CA

(GMT )
Point Mugu

Weather History for KNTD - January, 2014

Change the Weather History Date:

Wednesday, January 1, 2014

  Actual Average Record
Temperature  
Mean Temperature 54 °F -  
Max Temperature 66 °F 61 °F 68 °F (2008)
Min Temperature 42 °F 45 °F 37 °F (2015)
Degree Days  
Heating Degree Days 11    
Growing Degree Days 4 (Base 50)    
Moisture  
Dew Point 47 °F    
Average Humidity 77    
Maximum Humidity 93    
Minimum Humidity 50    
Precipitation  
Precipitation 0.00 in - - ()
Sea Level Pressure  
Sea Level Pressure 30.09 in    
Wind  
Wind Speed 4 mph (NNW)    
Max Wind Speed 7 mph    
Max Gust Speed -    
Averages and records for this station are not official NWS values.
T = Trace of Precipitation, MM = Missing Value Source: NWS Daily Summary

Daily Weather History Graph

Daily Weather History Graph

Search for Another Location

Airport or City:

Trip Planner

Search our weather history database for the weather conditions in past years. The results will help you decide how hot, cold, wet, or windy it might be!

Date:

Astronomy

Jan. 01, 2014 Rise Set
Actual Time 7:02 AM PST 4:58 PM PST
Civil Twilight 6:34 AM PST 5:25 PM PST
Nautical Twilight 6:03 AM PST 5:57 PM PST
Astronomical Twilight 5:32 AM PST 6:27 PM PST
Moon 7:00 AM PST (1/1) 5:45 PM PST (1/1)
Length of Visible Light 10h 51m
Length of Day
9h 55m
New Moon, 0% of the Moon is Illuminated
Jan 1
New Moon
Jan 7
First Quarter
Jan 15
Full
Jan 23
Last Quarter
Jan 30
New

Hourly Weather History & Observations

Time (PST) Temp. Windchill Dew Point Humidity Pressure Visibility Wind Dir Wind Speed Gust Speed Precip Events Conditions
12:54 AM 46.0 °F 44.8 °F 42.1 °F 86% 30.12 in - NE 3.5 mph - N/A   Clear
1:54 AM 46.0 °F 43.1 °F 42.1 °F 86% 30.11 in - NNE 5.8 mph - N/A   Clear
2:54 AM 46.9 °F - 41.0 °F 80% 30.10 in - NNE 6.9 mph - N/A   Clear
3:54 AM 42.1 °F - 36.0 °F 79% 30.10 in - Calm Calm - N/A   Clear
4:54 AM 44.1 °F 40.1 °F 37.9 °F 79% 30.09 in - NNE 6.9 mph - N/A   Clear
5:54 AM 43.0 °F - 37.9 °F 82% 30.10 in - Calm Calm - N/A   Clear
6:54 AM 43.0 °F 39.5 °F 37.0 °F 80% 30.11 in - North 5.8 mph - N/A   Clear
7:54 AM 46.0 °F 44.8 °F 37.9 °F 73% 30.12 in - NNE 3.5 mph - N/A   Clear
8:54 AM 55.9 °F - 42.1 °F 60% 30.14 in - Calm Calm - N/A   Clear
9:54 AM 63.0 °F - 45.0 °F 52% 30.15 in - Calm Calm - N/A   Clear
10:54 AM 66.0 °F - 46.9 °F 50% 30.13 in - WNW 4.6 mph - N/A   Clear
11:54 AM 64.9 °F - 51.1 °F 61% 30.10 in - WSW 6.9 mph - N/A   Clear
12:54 PM 66.0 °F - 53.1 °F 63% 30.08 in - WSW 6.9 mph - N/A   Clear
1:54 PM 66.9 °F - 52.0 °F 59% 30.06 in - WSW 6.9 mph - N/A   Clear
2:54 PM 66.0 °F - 53.1 °F 63% 30.06 in - WSW 6.9 mph - N/A   Clear
3:54 PM 64.9 °F - 54.0 °F 68% 30.06 in - WNW 5.8 mph - N/A   Clear
4:16 PM 64.0 °F - 53.1 °F 67% 30.06 in - West 4.6 mph - N/A   Partly Cloudy
4:54 PM 61.0 °F - 54.0 °F 78% 30.06 in - West 4.6 mph - N/A   Unknown
5:54 PM 59.0 °F - 54.0 °F 83% 30.07 in - NW 4.6 mph - N/A   Clear
6:54 PM 57.9 °F - 54.0 °F 87% 30.07 in - NNE 4.6 mph - N/A   Clear
7:54 PM 55.0 °F - 51.1 °F 86% 30.08 in - North 3.5 mph - N/A   Clear
8:22 PM 54.0 °F - 51.1 °F 90% 30.07 in - North 4.6 mph - N/A   Scattered Clouds
8:31 PM 55.0 °F - 52.0 °F 89% 30.07 in - North 4.6 mph - N/A   Mostly Cloudy
8:54 PM 53.1 °F - 51.1 °F 93% 30.08 in - North 4.6 mph - N/A   Mostly Cloudy
9:07 PM 54.0 °F - 50.0 °F 86% 30.08 in - North 5.8 mph - N/A   Scattered Clouds
9:54 PM 52.0 °F - 48.0 °F 86% 30.09 in - North 3.5 mph - N/A   Clear
10:54 PM 50.0 °F - 46.9 °F 89% 30.09 in - Calm Calm - N/A   Clear
11:54 PM 48.9 °F - 46.0 °F 90% 30.09 in - NE 4.6 mph - N/A   Clear